Wind_Speed
19 19 20 20 20 19 19 18 18 19 19 19 18 18 17 17 18 17 17 17 16 16 17 18 19 19 20 20 20 20 20 20 20 20 20 20 19 19 19 19 19 20
19 19 20 20 20 20 19 20 20 20 20 20 20 19 19 19 19 19 18 18 17 17 17 17 18 19 19 20 20 20 19 19 19 19 19 20 19 19 18 18 18 18
21 21 21 20 20 20 20 20 20 20 20 19 19 19 19 19 19 20 19 19 19 18 18 18 18 18 19 19 19 19 19 18 18 18 18 19 19 19 19 18 18 17
23 23 22 21 21 21 21 21 21 21 20 20 19 19 19 18 18 18 19 19 19 19 19 19 18 19 19 19 19 19 19 18 18 18 18 18 18 19 19 18 18 18
25 24 23 22 22 21 22 23 22 23 22 21 20 19 18 18 18 17 17 18 18 19 19 19 19 19 19 20 20 20 19 19 18 18 18 18 19 19 19 19 18 18
25 25 24 24 23 23 23 23 23 24 23 22 20 18 17 17 16 16 16 16 15 16 16 17 17 18 19 20 20 21 21 20 20 19 19 19 19 19 19 19 19 19
26 26 25 25 24 24 24 25 25 24 24 23 21 19 17 16 16 16 16 15 14 14 14 14 14 15 17 18 19 20 21 21 22 22 22 21 21 20 20 20 20 21
26 26 25 25 25 25 25 27 27 26 25 25 24 22 19 17 16 15 16 16 16 17 16 15 15 16 16 16 17 18 19 20 21 22 23 23 23 23 22 22 22 22
28 28 28 26 26 27 27 27 27 26 26 26 27 26 23 20 18 17 17 17 18 18 19 19 19 19 18 18 18 18 18 19 20 21 22 23 23 23 23 24 24 24
31 30 29 29 29 29 29 29 29 29 28 27 27 27 25 24 22 20 19 19 19 19 19 19 20 21 21 21 21 20 20 20 20 20 21 22 22 23 23 23 24 25
32 30 29 31 33 33 32 31 30 29 29 29 30 30 29 28 26 25 24 22 22 22 21 21 20 21 22 22 23 24 24 24 23 23 23 23 23 23 23 23 24 24
34 33 33 34 35 34 32 31 30 29 30 30 32 33 32 31 29 28 28 27 26 26 26 25 24 23 23 23 24 25 26 26 26 25 25 26 26 27 27 27 27 26
37 40 39 35 34 33 32 32 33 33 33 34 36 36 35 33 32 31 31 31 31 30 30 30 30 29 28 27 27 26 28 29 28 28 27 27 28 29 29 30 29 29
41 45 43 37 35 35 35 36 37 37 38 37 35 33 33 34 34 34 34 35 35 35 35 34 34 34 33 33 32 31 31 32 32 31 30 30 29 29 30 31 32 33
42 44 43 41 40 39 37 38 39 39 40 40 36 34 35 36 36 37 37 38 39 40 40 39 37 37 37 36 36 36 37 37 36 35 35 35 33 32 33 34 35 37
46 45 44 42 41 40 39 38 39 40 42 44 45 45 42 40 39 39 40 41 42 43 43 42 42 41 38 36 37 37 39 40 39 38 38 38 38 37 37 38 38 38
49 49 48 46 44 42 41 40 40 42 43 44 46 46 43 41 41 41 41 43 45 45 45 45 45 43 40 39 39 39 39 39 40 40 41 41 42 41 41 41 40 40
49 50 50 50 49 48 47 46 45 45 46 46 45 45 44 43 42 42 42 44 46 46 46 47 47 46 44 45 45 45 44 43 44 44 43 44 44 44 45 45 44 44
52 52 52 52 52 52 52 52 52 52 51 50 49 49 48 47 47 47 47 48 48 48 49 49 48 47 49 50 49 50 50 50 50 49 47 47 47 46 46 47 48 48
55 55 55 55 54 54 54 54 54 54 54 53 53 53 53 52 53 53 53 53 53 52 53 52 50 50 52 53 53 53 53 53 54 53 51 50 49 48 48 48 48 49
56 56 57 57 57 57 57 56 56 56 56 55 55 55 55 55 56 56 56 57 57 57 58 57 53 53 55 55 55 55 55 55 55 54 52 52 52 51 50 49 49 49
54 55 56 57 57 58 58 58 58 57 57 57 56 56 56 56 56 57 58 58 58 59 60 58 56 56 57 57 57 57 56 56 55 54 54 54 53 53 52 52 52 52
52 53 54 54 55 55 56 56 57 57 57 57 56 56 56 56 56 56 58 59 58 59 59 58 57 58 58 58 58 57 56 56 55 55 54 55 55 54 54 53 53 54
52 53 53 54 54 54 54 54 55 55 56 56 56 56 56 56 55 55 56 58 58 57 56 56 56 57 57 57 56 55 55 54 54 54 54 55 55 54 54 54 55 55
52 52 53 53 54 54 55 55 55 55 55 55 55 55 55 56 55 54 54 55 55 55 54 54 55 55 55 55 54 53 53 53 53 53 54 55 55 54 54 54 53 51
51 51 51 52 52 53 53 54 54 54 54 54 55 55 55 55 55 55 54 53 54 54 53 53 53 54 53 53 53 52 52 52 52 52 53 54 54 53 52 50 49 49
Wind_Direction
269 268 267 267 267 267 265 264 262 261 260 260 260 260 260 260 261 262 261 260 259 258 259 260 260 261 261 262 262 264 265 264 264 264 264 264 262 260 259 257 256 256
266 266 265 264 263 264 264 263 262 262 262 262 263 263 263 262 262 262 263 262 260 259 258 257 258 258 259 260 261 262 263 263 263 263 263 264 264 263 261 259 258 256
265 264 262 260 259 259 260 261 262 262 262 263 264 265 265 264 264 264 263 264 263 261 260 258 257 257 256 257 259 261 262 262 261 261 260 261 262 263 262 261 259 258
264 260 256 254 253 254 255 256 259 261 262 263 263 263 265 265 265 265 264 263 263 263 262 261 260 259 258 257 257 258 260 261 261 260 259 259 260 261 262 262 262 260
263 258 253 249 248 250 253 255 257 259 261 262 263 263 264 264 264 265 264 263 262 262 262 262 262 262 263 262 262 261 260 260 261 260 260 259 259 259 261 262 262 262
259 257 253 250 248 249 253 256 256 258 259 260 263 264 264 265 264 264 265 264 262 261 261 263 263 262 263 264 265 266 266 265 265 263 261 260 259 258 259 260 261 261
256 257 255 252 251 251 253 256 257 257 257 258 259 262 263 265 264 263 262 263 262 259 258 260 263 263 262 262 263 264 266 267 268 268 267 265 263 261 259 259 260 261
255 256 256 255 254 255 255 258 260 258 257 256 255 255 256 258 261 261 259 259 260 261 260 261 263 264 263 262 261 260 260 261 262 264 266 267 267 267 265 264 263 263
254 256 256 256 256 256 256 258 260 260 260 259 255 250 249 250 252 254 254 255 257 260 264 265 266 266 265 264 264 264 262 260 259 259 261 262 264 266 267 268 268 267
251 253 256 257 258 258 258 256 255 256 259 262 260 256 251 249 249 250 251 251 252 254 259 265 268 268 268 267 267 268 268 266 264 262 261 262 263 264 265 267 268 268
245 248 256 260 260 260 259 256 253 254 257 261 264 263 261 256 252 251 251 251 251 252 255 260 264 266 268 271 272 273 272 271 269 269 267 267 268 268 269 270 270 270
247 252 263 265 260 257 256 253 253 257 260 261 262 263 263 261 257 255 255 256 255 256 257 260 263 264 266 270 273 274 274 272 272 272 274 275 276 276 276 276 275 273
259 260 265 264 255 251 253 253 255 260 264 264 264 262 262 263 262 259 258 260 260 259 260 261 263 266 267 269 271 272 270 269 269 270 274 278 280 281 281 280 279 277
266 263 263 261 253 251 255 257 258 262 264 263 261 260 259 261 262 262 261 263 264 263 262 262 263 266 269 271 272 271 270 268 268 269 271 275 277 278 280 281 282 282
260 260 259 258 253 252 255 257 258 261 261 258 257 260 263 263 263 262 262 262 263 263 263 264 266 267 269 271 272 272 272 271 270 270 270 272 272 272 274 278 281 283
255 256 256 256 254 252 253 254 255 257 258 259 260 264 267 267 265 263 262 261 262 263 262 262 264 266 269 272 272 272 272 273 273 273 273 273 273 273 274 276 279 281
258 257 256 256 255 254 253 253 253 254 256 258 261 263 266 267 267 267 266 264 264 265 264 262 262 265 271 274 274 273 274 274 274 274 275 276 276 276 276 277 277 278
261 259 259 258 258 257 257 257 257 257 257 259 261 263 263 264 266 267 267 267 267 267 267 266 265 268 273 275 275 275 275 276 275 275 276 277 277 278 278 278 277 277
259 260 260 261 262 263 263 263 264 265 265 265 266 267 267 267 266 266 267 268 268 268 269 268 268 271 275 275 274 275 275 276 277 277 278 279 279 280 279 278 278 278
257 258 259 260 262 264 265 265 266 267 268 268 269 269 269 269 269 268 269 269 269 269 269 268 269 272 275 275 275 275 276 277 278 278 279 280 281 281 280 278 278 278
258 258 259 260 261 263 264 265 265 266 267 267 268 268 269 269 269 269 270 270 271 271 270 270 271 273 273 274 275 276 277 278 279 279 279 280 281 281 280 278 278 278
260 260 260 261 262 263 264 264 265 265 266 266 267 267 268 268 269 269 269 270 270 271 272 272 273 273 273 273 274 275 277 278 279 279 280 280 280 280 279 278 278 278
260 261 262 262 263 263 264 264 265 265 266 266 267 267 267 267 267 268 269 269 269 270 271 272 272 272 273 274 274 275 276 277 278 279 280 279 279 279 279 279 278 278
259 260 261 262 263 263 264 264 265 265 265 266 266 267 267 267 267 267 267 268 268 269 270 270 270 271 273 274 274 275 276 276 277 277 277 277 277 278 278 279 279 278
261 261 261 261 261 262 263 263 264 265 265 266 266 266 266 266 267 266 266 267 268 268 268 269 269 270 271 272 273 273 273 274 275 275 274 275 276 277 277 277 277 275
263 263 262 262 262 262 262 262 263 264 264 264 265 265 266 266 267 267 267 267 267 268 268 268 269 269 270 270 271 271 271 272 272 272 273 273 274 275 275 274 272 272
Height
5732 5732 5732 5732 5732 5733 5733 5733 5733 5732 5733 5733 5733 5733 5734 5734 5734 5735 5736 5736 5736 5737 5737 5737 5736 5736 5736 5736 5736 5737 5737 5737 5738 5738 5739 5739 5740 5741 5741 5742 5743 5744
5730 5730 5730 5730 5730 5730 5730 5730 5730 5730 5731 5731 5731 5731 5732 5732 5732 5733 5733 5734 5734 5734 5735 5735 5735 5735 5735 5735 5735 5735 5735 5735 5736 5736 5736 5737 5737 5738 5739 5740 5740 5741
5728 5728 5728 5728 5728 5728 5728 5728 5728 5728 5729 5729 5729 5729 5730 5730 5730 5730 5731 5731 5732 5732 5732 5733 5733 5733 5733 5733 5733 5733 5733 5733 5734 5734 5734 5735 5735 5736 5736 5737 5738 5739
5725 5726 5726 5726 5726 5726 5726 5726 5726 5727 5727 5727 5727 5727 5727 5728 5728 5728 5729 5729 5729 5730 5730 5730 5731 5731 5731 5731 5731 5732 5732 5732 5732 5732 5733 5733 5733 5734 5734 5735 5735 5736
5722 5723 5723 5724 5724 5724 5724 5724 5724 5724 5725 5725 5725 5725 5725 5726 5726 5726 5726 5727 5727 5728 5728 5728 5729 5729 5729 5729 5730 5730 5730 5731 5731 5731 5731 5731 5731 5732 5732 5733 5733 5734
5719 5719 5721 5721 5722 5722 5722 5721 5722 5722 5722 5723 5723 5723 5724 5724 5724 5724 5724 5724 5725 5725 5726 5726 5726 5727 5727 5727 5727 5728 5728 5729 5729 5729 5729 5730 5730 5730 5731 5731 5731 5732
5715 5716 5717 5718 5719 5720 5720 5719 5719 5720 5720 5720 5721 5722 5722 5722 5722 5722 5722 5722 5723 5723 5723 5724 5724 5724 5724 5725 5725 5725 5726 5727 5727 5727 5727 5727 5728 5728 5729 5729 5729 5730
5712 5713 5714 5715 5716 5716 5716 5716 5717 5718 5717 5717 5718 5719 5719 5720 5720 5720 5720 5720 5720 5721 5721 5721 5721 5722 5722 5722 5722 5722 5723 5724 5724 5724 5724 5725 5725 5725 5726 5726 5727 5727
5708 5709 5710 5711 5712 5712 5712 5713 5714 5715 5715 5715 5715 5715 5716 5717 5717 5718 5718 5718 5718 5718 5718 5719 5719 5719 5720 5720 5720 5720 5720 5721 5721 5721 5721 5722 5722 5723 5723 5723 5724 5724
5704 5706 5707 5708 5708 5708 5708 5708 5709 5710 5711 5712 5712 5712 5713 5713 5714 5715 5715 5716 5716 5716 5716 5716 5717 5717 5717 5718 5718 5718 5718 5718 5719 5719 5719 5719 5719 5720 5720 5721 5721 5721
5701 5702 5703 5704 5704 5705 5705 5705 5706 5706 5707 5708 5709 5709 5710 5710 5710 5711 5712 5712 5713 5714 5714 5714 5714 5715 5715 5715 5715 5715 5715 5715 5716 5716 5716 5717 5717 5717 5718 5718 5718 5718
5697 5698 5699 5700 5701 5701 5701 5702 5703 5703 5703 5703 5704 5705 5706 5706 5706 5707 5708 5709 5710 5710 5711 5711 5712 5712 5712 5713 5713 5713 5713 5712 5713 5713 5713 5713 5713 5714 5714 5714 5714 5715
5693 5694 5695 5695 5696 5697 5698 5698 5699 5699 5698 5698 5699 5700 5701 5702 5702 5702 5703 5704 5705 5706 5707 5708 5708 5709 5709 5710 5710 5710 5709 5709 5710 5710 5710 5710 5710 5710 5710 5710 5710 5711
5688 5688 5689 5691 5692 5692 5693 5694 5694 5694 5694 5694 5694 5695 5696 5696 5696 5697 5698 5699 5700 5701 5702 5704 5704 5705 5705 5706 5706 5706 5706 5706 5706 5706 5707 5707 5707 5707 5706 5706 5706 5707
5683 5683 5684 5685 5686 5687 5688 5688 5689 5690 5689 5689 5690 5691 5691 5690 5691 5692 5693 5694 5696 5696 5697 5699 5700 5700 5701 5701 5701 5701 5701 5701 5702 5702 5702 5703 5703 5703 5703 5703 5702 5702
5678 5678 5679 5680 5680 5681 5682 5682 5683 5684 5684 5684 5684 5685 5684 5684 5685 5686 5688 5689 5690 5690 5691 5693 5694 5694 5695 5696 5695 5695 5696 5696 5697 5697 5697 5697 5697 5698 5698 5698 5698 5698
5672 5672 5673 5674 5675 5675 5676 5676 5677 5678 5678 5678 5678 5678 5678 5678 5679 5681 5682 5683 5683 5684 5685 5686 5688 5689 5690 5689 5689 5690 5690 5691 5692 5691 5691 5692 5692 5692 5692 5693 5693 5692
5665 5666 5667 5667 5668 5669 5669 5670 5670 5671 5672 5672 5673 5673 5673 5673 5674 5676 5677 5677 5677 5678 5679 5680 5681 5683 5683 5683 5683 5684 5684 5685 5686 5686 5687 5686 5686 5686 5686 5686 5686 5686
5659 5659 5660 5661 5662 5662 5662 5663 5663 5664 5665 5666 5666 5666 5666 5667 5668 5670 5671 5671 5671 5673 5673 5673 5676 5678 5676 5676 5677 5678 5678 5679 5679 5680 5681 5680 5680 5681 5680 5679 5679 5679
5652 5653 5654 5654 5655 5656 5656 5657 5657 5657 5658 5659 5659 5660 5660 5661 5661 5663 5664 5664 5665 5667 5666 5667 5671 5672 5670 5670 5671 5671 5672 5672 5672 5674 5674 5673 5673 5674 5673 5673 5672 5672
5645 5646 5647 5648 5648 5649 5649 5650 5650 5651 5652 5652 5653 5653 5654 5655 5655 5655 5657 5657 5658 5659 5658 5662 5665 5665 5663 5664 5665 5665 5666 5665 5665 5667 5667 5666 5666 5666 5665 5665 5665 5665
5638 5639 5640 5640 5641 5642 5642 5642 5643 5644 5644 5645 5646 5647 5647 5648 5648 5648 5649 5650 5651 5650 5651 5655 5658 5656 5655 5657 5658 5659 5659 5658 5658 5659 5659 5658 5658 5658 5658 5658 5658 5658
5632 5632 5633 5633 5634 5634 5635 5635 5635 5636 5637 5637 5638 5639 5640 5640 5641 5641 5641 5642 5644 5644 5646 5649 5649 5647 5649 5650 5651 5652 5652 5651 5651 5651 5651 5650 5650 5650 5650 5650 5650 5650
5625 5626 5626 5626 5627 5627 5627 5628 5628 5628 5629 5630 5631 5632 5632 5632 5634 5635 5634 5634 5636 5637 5639 5641 5640 5640 5642 5643 5643 5645 5644 5644 5644 5643 5643 5642 5642 5642 5643 5642 5642 5642
5618 5619 5619 5619 5620 5620 5620 5621 5621 5621 5622 5623 5623 5624 5624 5625 5626 5627 5627 5628 5629 5630 5632 5633 5633 5633 5635 5635 5636 5637 5637 5636 5636 5635 5635 5635 5635 5635 5635 5634 5634 5634
5610 5611 5611 5612 5613 5613 5614 5614 5615 5615 5615 5616 5616 5617 5617 5618 5619 5620 5621 5622 5622 5623 5625 5626 5626 5627 5628 5628 5629 5630 5630 5629 5628 5627 5627 5627 5628 5628 5627 5627 5627 5626